Location: Sternwarte ZA, Rosenfeld-Brittheim
(48.2889°N, 8.6789°E)
Time: 15:50:29
(UTC+01:00)

ISS - Visible Passes

Search period start: 17 February 2019 00:00
Search period end: 27 February 2019 00:00
Orbit: 403 x 411 km, 51.6° (Epoch: 18 February)

Date Brightness Start Highest point End Pass type
(mag) Time Alt. Az. Time Alt. Az. Time Alt. Az.
23 Feb -1.1 06:33:32 10° S 06:35:57 19° SE 06:38:22 10° E visible
24 Feb -0.8 05:43:25 10° SSE 05:44:41 12° SE 05:45:56 10° ESE visible
25 Feb -2.5 06:26:09 10° SW 06:29:13 38° SSE 06:32:17 10° ENE visible
26 Feb -1.8 05:35:40 13° S 05:37:49 24° SE 05:40:31 10° E visible
